SL-8 R/B

Satellite information

Favourite Embed

Satellite Type and Status

ROCKET BODYIN ORBIT

Key statistics

Satellite SL-8 R/B at a glance.

Uptime

17374

Days in orbit

Revolutions

≈ 13.8

Per day

Orbit

LEO

Low Earth Orbit

Inclination

82.9

Latest

Satellite identification and parameters

Extended collection of information and parameters for SL-8 R/B.

Object identification

Identified? True

Debris? False

Object name: SL-8 R/B

International designator: 1978-034B

Object number (NORAD): 10777

Object ID (CCSDS): 10777

Country: COMMONWEALTH OF INDEPENDENT STATES (CIS)

Current information (Y/N): Y

RCS size: LARGE

Orbital parameters

Period: 104.521 minutes

Inclination: 82.939 deg

SMA: 7350.14 km

Apoapsis: 990.285 km

Periapsis: 953.725 km

RAAN: 121.0893 deg

Eccentricy: 0.00248701

Argument of periapsis: 292.8025 deg

Mean anomaly: 178.0731 deg

Mean motion: 13.77714905 rev/day

Mean motion (dot): 0.00000206 rev/day2

B* drag term: 0.00019058683 1/REarth

Two-line elements (TLE)

Creation date: Oct. 24, 2025, 2:48 a.m.

Reference frame: TEME

Reference center: EARTH

Epoch: Oct. 23, 2025, 11:52 p.m. UTC

TLE line 0: 0 SL-8 R/B

TLE line 1: 1 10777U 78034B 25296.99490697 .00000206 00000-0 19059-3 0 9996

TLE line 2: 2 10777 82.9390 121.0893 0024870 292.8025 178.0731 13.77714905390371

Live tracking on map

Real-time ground track for satellite SL-8 R/B.

In-orbit conjunctions

A list of the most updated potential collisions computed for object SL-8 R/B.

Target Orbit TCA Probability of collision Miss distance Type
COSMOS 1375 DEB LEO 2024-10-16 22:01:44 0.001132116 211.0 (m) DEBRIS

Associated space launch

Civilian navigation satellite equivalent to the purely military Parus

SL-8 R/B was lifted into orbit during the mission ‘Kosmos-3M | Tsikada 4’, on board a Kosmos-3M space rocket.

The launch took place on March 31, 1978, 2:01 p.m. from 132/1 (132L).

For more information about the launch, click the button.

Launch to space Kosmos-3M | Tsikada 4
Kosmos-3M | Tsikada 4

Agency: N/A

Status: Launch Successful

Launch date: March 31, 1978, 2:01 p.m. UTC

Rocket: Kosmos-3M

Launch pad: 132/1 (132L)

Location: Plesetsk Cosmodrome, Russian Federation

...

Latest news about this satellite

There are no fresh news available about this satellite. Check back as we update our databases every day.


Newsletter sign-up

Weekly statistics, charts and insights to help you stay on top of the space industry.